CZ-6A DEB, 54619

Orbit data source: Space-Track

CZ-6A DEB, 54619 is space debris in SSO originally from a launch on Fri, 11 Nov 2022 UTC launched from the Taiyaun Space Center, China (TSC). Debris objects in space refer to the collection of defunct objects orbiting the Earth. Examples of debris include non-operational satellites, rocket bodies, and fragments generated from explosions, collisions, or faulty payload assembly.

Loading next visibility...
Identifier
54619, 2022-151NV
Orbit
SSO
Country
Flag of CNCN / PRC
Related business
Manufacturer
SAST
Mission
Spacecraft
Bus & Motor
Unknown
Mass
Unknown
Launch date (UTC)
2022-11-11 (4 years ago)
Launch vehicle
Unknown
Launch site
Taiyaun Space Center, China (TSC)
Object type
Payload
Rocket body
Debris
Shape & HBR
Unknown shape, 0.1 m
Radar Cross Section
Small (<0.1 m²)

Expand to show TLE details & history
Last TLE update: 2 days ago

TLE from 2 days ago
0 CZ-6A DEB
1 54619U 22151NV  26171.41193978  .00000645  00000-0  21411-3 0  9992
2 54619  98.7948 233.6451 0069325  24.0471 336.3928 14.39929620187587
Epoch: 2026-06-20T09:53Z
TLE epoch observation values (Epoch: 2026-06-20T09:53:11.596Z)
Latitude
0.00006°
Longitude
176.71983°
Altitude
716.381 km
Speed
7.521 km/s
True Right ascension
15h 34m 34s
True Declination
0° 00' 00"
Sunlit
Object was in full shadow at epoch
Visualization orbit readout
Latitude
Unknown
Longitude
Unknown
Altitude
Unknown
Speed
Unknown
Apparent Right ascension
Unknown
Apparent Declination
Unknown
Sunlit
N/A
Visualization observer readout
Local Sidereal Time
21:55:09
Azimuth
Unknown
Elevation
Unknown
Doppler factor
Unknown
Orbital elements
Apogee altitude
805.323 km
Perigee altitude
706.41 km
Semi-major axis
7,134.004 km
Eccentricity
0.00693
Inclination
98.7948°
RAAN
233.6451°
Arg. of periapsis
24.0471°
True anomaly
336.07213°
Mean anomaly
336.3928°
Eccentric anomaly
336.23272°
Mean motion
3.602 °/min
Orbital period
99.94 mins
BSTAR
0.00021411
Loading maneuver chart data...
Computing Atmospheric mass density...
Loading historical data...
Loading historical data...
Loading historical data...
Loading historical data...
Loading historical data...
Loading historical data...
Loading historical data...

Documentation

Showing up to 5 results
|